sat.trackr.live / text

‹ back to catalog

HULIANWANG DIGUI-77

NORAD 65309 · 2025-187E

PAYLOAD ACTIVE UNKNOWN

§ Identity

Operator
Country
PRC
Launch date
2025-08-25
Launch site
WSC
Launch vehicle
Mass (kg)
RCS (m²)

External: N2YO · Heavens-Above · Gunter

§ Orbital elements

Epoch: 2026-09-20T22:23:16.155168Z

Period
108.33 min
Inclination
50.0035°
Eccentricity
0.0000933
Mean motion
13.29326762 rev/d
Perigee alt
1,148.6 km
Apogee alt
1,150.0 km
Semi-major
7,527.4 km
B*
6.5346e-5
RAAN
222.6185°
Arg perigee
2.5379°
Mean anomaly
357.5498°
Rev number
5,243

§ Raw data

HULIANWANG DIGUI-771 65309U 25187E   26263.93282587 -.00000094  00000+0  65346-4 0  99902 65309  50.0035 222.6185 0000933   2.5379 357.5498 13.29326762 52431

JSON: /api/v1/satellites/65309 · /tle

For live sub-satellite position, see the globe view (requires WebGL).

§ Visibility from observer

Set your observer location to see the next 7 days of passes ≥ 10°. The values pass through the URL so the page stays shareable.

No JS? Fill the form by hand. The geolocation button needs JavaScript.